Weather History for K1YT - December, 2013

Change the Weather History Date:

Thursday, December 12, 2013

  Actual Average (KYKM) Record (KYKM)
Temperature  
Mean Temperature 22 °F 28 °F  
Max Temperature 27 °F 36 °F 56 °F (1956)
Min Temperature 17 °F 21 °F -8 °F (1972)
Degree Days  
Heating Degree Days 43 37  
Month to date heating degree days 421  
Since 1 July heating degree days 1954  
Cooling Degree Days 0 0  
Month to date cooling degree days 0  
Year to date cooling degree days 472  
Moisture  
Dew Point 17 °F    
Average Humidity 80    
Maximum Humidity 91    
Minimum Humidity 69    
Precipitation  
Precipitation 0.00 in 0.05 in 0.77 in (1995)
Month to date precipitation 0.58  
Year to date precipitation 7.30  
Snow  
Snow 0.00 in 0.30 in 2.80 in (1972)
Month to date snowfall 3.5  
Year to date snowfall 15.7  
Since 1 July snowfall 7.1  
Snow Depth -    
Sea Level Pressure  
Sea Level Pressure 30.20 in    
Wind  
Wind Speed 1 mph (NNW)    
Max Wind Speed 4 mph    
Max Gust Speed -    
Visibility 11 miles    
Events      
T = Trace of Precipitation, MM = Missing Value Source: NWS Daily Summary

Daily Weather History Graph

Daily Weather History Graph

Search for Another Location

Airport or City:

Trip Planner

Search our weather history database for the weather conditions in past years. The results will help you decide how hot, cold, wet, or windy it might be!

Date:

Astronomy

Dec. 12, 2013 Rise Set
Actual Time 7:37 AM PST 4:14 PM PST
Civil Twilight 7:02 AM PST 4:49 PM PST
Nautical Twilight 6:23 AM PST 5:27 PM PST
Astronomical Twilight 5:47 AM PST 6:04 PM PST
Moon 1:35 PM PST (12/12) 2:52 AM PST (12/12)
Length of Visible Light 9h 46m
Length of Day
8h 36m
Waxing Gibbous, 81% of the Moon is Illuminated
Dec 12
Waxing Gibbous
Dec 17
Full
Dec 25
Last Quarter
Jan 1
New
Jan 7
First Quarter

Hourly Weather History & Observations

Time (PST) Temp. Windchill Dew Point Humidity Pressure Visibility Wind Dir Wind Speed Gust Speed Precip Events Conditions
12:56 AM 20.3 °F - 15.8 °F 83% 30.30 in 12.0 mi NNW 1.2 mph - N/A   Mostly Cloudy
1:56 AM 20.1 °F - 14.9 °F 80% 30.29 in 12.0 mi Variable 1.2 mph - N/A   Scattered Clouds
2:56 AM 19.4 °F - 14.5 °F 81% 30.29 in 12.0 mi Calm Calm - N/A   Partly Cloudy
3:56 AM 19.0 °F - 14.9 °F 84% 30.27 in 12.0 mi SW 1.2 mph - N/A   Clear
4:56 AM 17.4 °F - 14.9 °F 90% 30.25 in 11.0 mi WSW 2.3 mph - N/A   Scattered Clouds
5:56 AM 17.4 °F - 15.1 °F 91% 30.24 in 10.0 mi ENE 1.2 mph - N/A   Mostly Cloudy
6:56 AM 17.2 °F - 14.9 °F 91% 30.24 in 9.0 mi SE 1.2 mph - N/A   Overcast
7:56 AM 17.4 °F - 15.1 °F 91% 30.24 in 6.0 mi SW 2.3 mph - N/A   Overcast
9:56 AM 21.2 °F - 17.1 °F 84% 30.23 in 9.0 mi Calm Calm - N/A   Clear
10:56 AM 21.6 °F - 17.4 °F 84% 30.21 in 9.0 mi Variable 1.2 mph - N/A   Clear
11:56 AM 24.1 °F - 18.0 °F 77% 30.19 in 12.0 mi Variable 1.2 mph - N/A   Mostly Cloudy
12:56 PM 25.7 °F - 18.1 °F 73% 30.16 in 12.0 mi Variable 1.2 mph - N/A   Mostly Cloudy
1:56 PM 26.8 °F - 18.3 °F 70% 30.14 in 12.0 mi NW 1.2 mph - N/A   Mostly Cloudy
2:56 PM 27.0 °F - 18.3 °F 70% 30.13 in 12.0 mi Variable 1.2 mph - N/A   Mostly Cloudy
3:56 PM 27.5 °F - 18.5 °F 69% 30.13 in 12.0 mi East 2.3 mph - N/A   Overcast
4:56 PM 27.0 °F - 18.3 °F 70% 30.13 in 12.0 mi North 2.3 mph - N/A   Mostly Cloudy
5:56 PM 24.6 °F - 18.0 °F 76% 30.12 in 12.0 mi Calm Calm - N/A   Mostly Cloudy
6:56 PM 26.1 °F - 18.3 °F 73% 30.13 in 10.0 mi West 1.2 mph - N/A   Mostly Cloudy
7:56 PM 24.4 °F - 18.3 °F 78% 30.14 in 10.0 mi SW 2.3 mph - N/A   Mostly Cloudy
8:56 PM 23.4 °F 18.9 °F 17.8 °F 79% 30.15 in 10.0 mi East 3.5 mph - N/A   Mostly Cloudy
9:56 PM 18.9 °F - 14.5 °F 83% 30.16 in 11.0 mi East 1.2 mph - N/A   Clear
10:56 PM 19.6 °F 14.5 °F 15.6 °F 85% 30.18 in 10.0 mi North 3.5 mph - N/A   Clear
11:56 PM 17.8 °F 12.5 °F 14.7 °F 88% 30.18 in 10.0 mi SE 3.5 mph - N/A   Clear